Погода в Ононске

Россия / Забайкальский край     50°59′04″N   115°34′19″E
темп.,
°C
ветер,
м/с
пор.,
м/с
влажн.,
%
обл.,
%
осадки,
мм/ч
давл.,
гПа
погр.,
м
19 сентября, вс
вс1900:00+6с0190100 0.0 102019
03:00+5ююз119145 0.0 102010
06:00+4юв11922 0.0 102010
09:00+7ю228447 0.0 1021198
12:00+12ю34655 0.0 1019688
15:00+15ю455326 0.0 10171100
18:00+15ююв46605 0.0 1015369
21:00+9ююв22755 0.0 101616
20 сентября, пн
пн2000:00+8ююв228099 0.0 101619
03:00+7юв2384100 0.0 101663
06:00+8юв2374100 0.1 101578
09:00+9ю2566100 0.4 1015206
12:00+8вюв2480100 1.8 1014173
15:00+11св2272100 1.9 1012165
18:00+11св337563 0.0 1010144
21:00+8св338598 0.0 101042
21 сентября, вт
вт2100:00+9св2383100 0.0 100957
03:00+10св238999 0.1 100855
06:00+9св229097 0.0 100833
09:00+11всв2285100 0.1 1008121
12:00+16ююв457297 0.1 1006950
15:00+17ю5664100 0.3 10041284
18:00+16ююз3676100 1.3 1004214
21:00+11с119510 2.3 100611
22 сентября, ср
ср2200:00+10сз1196100 0.4 100711
03:00+10сз4790100 0.4 1009322
06:00+9сз2685100 0.8 1010303
09:00+8сз4786100 0.8 1012374
12:00+9зсз237455 0.1 1012526
15:00+13з34588 0.1 1011996
18:00+13з12575 0.0 1011801
21:00+10в2268100 0.0 101313
23 сентября, чт
чт2300:00+10всв1173100 0.0 101412
03:00+9ссв2277100 0.0 101529
06:00+9всв2284100 0.1 101543
09:00+10ссв247744 0.1 1015236
12:00+12с2272100 0.2 1015553
15:00+11с228325 2.5 1016364
18:00+11сз7880100 0.1 1017597
21:00+6зсз611850 0.1 1021432